Location: Tel Aviv
(32.0670°N, 34.7670°E)
Time: 08:53:42
(UTC+02:00)

Transit 2A Rocket - Pass Details

Date: 13 December 2023
Orbit: 590 x 905 km, 66.7° (Epoch: 01 March)

Event Time Altitude Azimuth Distance (km) Brightness Sun altitude
Exits shadow 03:30:13 18° 95° (E) 1,623 7.3 -37.7°
Drops below altitude 10° 03:31:55 10° 112° (ESE) 2,103 8.0 -37.3°
Sets 03:34:43 0° 126° (SE) 3,074 8.9 -36.8°
